STARLINK-32955, 63117

Orbit data source: Space-Track

STARLINK-32955, 63117 is a payload satellite owned by SpaceX/Seattle (US) in LEO that was launched on Thu, 27 Feb 2025 UTC via an FALCON 9 launch vehicle from the Air Force Eastern Test Range (AFETR). Payload-class satellites include a variety of spacecraft equipped with specific instruments for various scientific and technological missions. These include communications satellites like Starlink; space stations such as the ISS; scientific satellites like the Hubble; Earth observation satellites from companies like Planet Labs, Umbra, and HawkEye 360; GPS; miniature CubeSats for education and research; and military/defense satellites.

Loading next visibility...
Identifier
63117, 2025-039P
Orbit
LEO
Last TLE update
6 hours ago
Origin
Manufacturer
SpaceX/Seattle
Mission
Operational Commercial Communications
Bus & Motor
STARLINK V2M, Unknown motor
Mass
730 kg wet, ~700 kg dry
Launch date (UTC)
2025-02-27 (4 months ago)
Launch vehicle
FALCON 9
Launch site
Air Force Eastern Test Range (AFETR)
Object type
Payload
Rocket body
Debris
Shape & HBR
Box + 2 Pan, 29 m
Radar Cross Section
33.884 m², Large (>1 m²)

Expand to show TLE details & history

TLE from 6 hours ago
0 STARLINK-32955
1 63117U 25039P   25182.17278740  .00022818  00000-0  83528-3 0  9991
2 63117  43.0060 352.9475 0002691 271.8982  88.1562 15.27612296 20321
Epoch: 2025-07-01T04:08Z
TLE epoch observation values (Epoch: 2025-07-01T04:08:48.831Z)
Latitude
0.00002°
Longitude
11.27201°
Altitude
482.67 km
Speed
7.626 km/s
True Right ascension
23h 31m 47s
True Declination
0° 00' 00"
Sunlit
Object was in daylight at epoch
Visualization orbit readout
Latitude
2.78364°
Longitude
12.76182°
Altitude
482.391 km
Speed
7.626 km/s
Apparent Right ascension
02h 15m 19s
Apparent Declination
-50° 53' 02"
Sunlit
Object is in daylight
Visualization observer readout
Local Sidereal Time
22:04:56
Azimuth
144.367° SSE
Elevation
-15.971°
Doppler factor
1
Orbital elements
Apogee altitude
486.743 km
Perigee altitude
483.05 km
Semi-major axis
6,863.034 km
Eccentricity
0.00027
Inclination
43.006°
RAAN
352.9475°
Arg. of periapsis
271.8982°
True anomaly
Unknown
Mean anomaly
88.1562°
Eccentric anomaly
Unknown
Mean motion
3.81741 °/min
Orbital period
94.3 mins
BSTAR
0.00083528
Loading maneuver chart data...
Loading SW <> Apogee altitude chart data...
Loading historical data...
Loading historical data...
Loading historical data...
Loading historical data...
Loading historical data...
Loading historical data...
Loading historical data...

STARLINK-32955 Visibility forecast

Observer location: undefined°, undefined°

Span
Click to sort rows by Start time (UTC) header in descending order
Start Az.
Max El. time (UTC)
Max El. Az.
Max El.
End time (UTC)
End Az.
5 mins2025-07-01 15:22:29.428Z231.712° WSW2025-07-01 15:24:29.428Z178.028° S41.144°2025-07-01 15:27:29.428Z78.061° E
5 mins2025-07-01 17:01:29.428Z281.779° WNW2025-07-01 17:03:29.428Z335.554° NNW38.828°2025-07-01 17:06:29.428Z68.576° E
6 mins2025-07-01 18:40:29.428Z293.43° NW2025-07-01 18:42:29.428Z331.046° NNW39.976°2025-07-01 18:46:29.428Z93.576° ESE
5 mins2025-07-01 20:19:29.428Z271.255° WNW2025-07-01 20:21:29.428Z224.385° SW33.043°2025-07-01 20:24:29.428Z142.45° SSE
|